Location: Newark
(44.6028°N, 124.0883°W)
Time: 06:42:51
(UTC+00:00)

Vanguard 2 - All Passes

Search period start: 18 October 2019 00:00
Search period end: 28 October 2019 00:00
Orbit: 554 x 2937 km, 32.9° (Epoch: 17 October)

Date Brightness Start Highest point End Pass type
(mag) Time Alt. Az. Time Alt. Az. Time Alt. Az.
18 Oct - 01:58:58 10° SSW 02:06:29 28° SE 02:17:18 10° E visible
18 Oct - 04:04:57 10° WSW 04:15:26 49° SSE 04:30:54 10° ESE visible
18 Oct - 06:13:15 10° WSW 06:26:12 50° S 06:42:53 10° ESE visible
18 Oct - 08:23:36 10° W 08:37:10 34° SSW 08:51:54 10° SSE visible
18 Oct - 10:39:45 10° WSW 10:46:52 14° SW 10:53:54 10° SSW visible
19 Oct - 02:16:00 10° SSW 02:23:54 34° SSE 02:35:42 10° E visible
19 Oct - 04:22:37 10° WSW 04:33:14 50° S 04:48:53 10° ESE visible
19 Oct - 06:31:12 10° W 06:44:02 46° SSW 07:00:24 10° SE visible
19 Oct - 08:42:08 10° W 08:54:46 29° SSW 09:08:22 10° SSE visible
20 Oct - 00:29:48 10° SSE 00:33:54 15° SE 00:38:58 10° ESE daylight
20 Oct - 02:33:17 10° SW 02:41:26 38° SSE 02:53:56 10° E visible
20 Oct - 04:40:21 10° WSW 04:51:04 50° S 05:06:47 10° ESE visible
20 Oct - 06:49:14 10° W 07:01:52 42° SSW 07:17:42 10° SE visible
20 Oct - 09:01:06 10° W 09:12:19 23° SW 09:24:16 10° S night (unlit)
21 Oct - 00:45:54 10° S 00:51:08 20° SE 00:58:11 10° E daylight
21 Oct - 02:50:44 10° SW 02:59:04 42° SSE 03:12:04 10° E visible
21 Oct - 04:58:10 10° WSW 05:08:56 49° S 05:24:35 10° ESE visible
21 Oct - 07:07:24 10° W 07:19:38 36° SSW 07:34:44 10° SSE visible
21 Oct - 09:20:50 10° WSW 09:29:48 17° SW 09:39:15 10° S night (unlit)
22 Oct - 01:02:37 10° SSW 01:08:28 25° SSE 01:16:50 10° E daylight
22 Oct - 03:08:18 10° WSW 03:16:47 45° S 03:30:06 10° ESE visible
22 Oct - 05:16:02 10° WSW 05:26:47 46° S 05:42:12 10° SE visible
22 Oct - 07:25:46 10° W 07:37:22 31° SSW 07:51:25 10° SSE visible
22 Oct - 09:42:49 10° WSW 09:47:17 11° SW 09:51:51 10° SSW night (unlit)
23 Oct - 01:19:42 10° SSW 01:25:55 30° SSE 01:35:13 10° E daylight
23 Oct - 03:25:58 10° WSW 03:34:33 46° S 03:48:04 10° ESE visible
23 Oct - 05:34:00 10° W 05:44:39 41° SSW 05:59:39 10° SE visible
23 Oct - 07:44:27 10° WSW 07:55:04 25° SSW 08:07:36 10° SSE visible
23 Oct - 23:34:15 10° SSE 23:36:19 11° SE 23:38:39 10° ESE daylight
24 Oct - 01:37:01 10° SW 01:43:28 34° SSE 01:53:25 10° E visible
24 Oct - 03:43:43 10° WSW 03:52:23 45° S 04:05:56 10° ESE visible
24 Oct - 05:52:05 10° W 06:02:29 36° SSW 06:16:49 10° SE visible
24 Oct - 08:03:41 10° WSW 08:12:43 19° SW 08:23:03 10° S visible
24 Oct - 23:49:57 10° S 23:53:37 16° SE 23:58:16 10° ESE daylight
25 Oct - 01:54:29 10° SW 02:01:06 38° SSE 02:11:30 10° ESE visible
25 Oct - 04:01:33 10° WSW 04:10:13 43° S 04:23:39 10° ESE visible
25 Oct - 06:10:19 10° WSW 06:20:19 31° SSW 06:33:40 10° SSE visible
25 Oct - 08:24:15 10° WSW 08:30:22 13° SW 08:37:02 10° SSW night (unlit)
26 Oct - 00:06:38 10° SSW 00:11:00 21° SSE 00:16:57 10° ESE daylight
26 Oct - 02:12:05 10° WSW 02:18:49 40° S 02:29:30 10° ESE visible
26 Oct - 04:19:27 10° WSW 04:28:05 39° S 04:41:11 10° SE visible
26 Oct - 06:28:49 10° WSW 06:38:06 25° SSW 06:50:05 10° SSE visible
27 Oct - 00:23:43 10° SSW 00:28:29 25° SSE 00:35:18 10° ESE daylight
27 Oct - 02:29:47 10° WSW 02:36:35 40° S 02:47:24 10° ESE visible
27 Oct - 04:37:27 10° WSW 04:45:57 35° SSW 04:58:30 10° SE visible
27 Oct - 06:47:48 10° WSW 06:55:54 19° SSW 07:05:51 10° S visible
